Time,TemperatureF,DewpointF,PressureIn,WindDirection,WindDirectionDegrees,WindSpeedMPH,WindSpeedGustMPH,Humidity,HourlyPrecipIn,Conditions,Clouds,dailyrainin,SoftwareType,DateUTC
2013-04-20 00:03:00,55.0,48.0,29.67,SW,216,20.0,-999.0,78,-99.99,,,-99.99,,2013-04-20 04:03:00,
2013-04-20 00:12:00,55.0,48.0,29.67,SW,216,20.0,-999.0,78,-99.99,,,-99.99,,2013-04-20 04:12:00,
2013-04-20 00:23:00,55.0,48.0,29.68,SSW,204,17.0,-999.0,78,-99.99,,,-99.99,,2013-04-20 04:23:00,
2013-04-20 00:33:00,54.0,47.0,29.69,WSW,251,16.0,-999.0,78,-99.99,,,-99.99,,2013-04-20 04:33:00,
2013-04-20 00:42:00,54.0,47.0,29.69,WSW,251,16.0,-999.0,78,-99.99,,,-99.99,,2013-04-20 04:42:00,
2013-04-20 00:52:00,54.0,47.0,29.69,WSW,244,19.0,-999.0,78,-99.99,,,-99.99,,2013-04-20 04:52:00,
2013-04-20 01:02:00,53.0,46.0,29.68,SW,214,16.0,-999.0,78,-99.99,,,-99.99,,2013-04-20 05:02:00,
2013-04-20 01:12:00,53.0,46.0,29.68,SW,214,16.0,-999.0,78,-99.99,,,-99.99,,2013-04-20 05:12:00,
2013-04-20 01:22:00,54.0,47.0,29.68,WSW,238,17.0,-999.0,78,-99.99,,,-99.99,,2013-04-20 05:22:00,
2013-04-20 01:32:00,54.0,47.0,29.67,SW,232,15.0,-999.0,78,-99.99,,,-99.99,,2013-04-20 05:32:00,
2013-04-20 01:43:00,54.0,47.0,29.67,SW,232,15.0,-999.0,78,-99.99,,,-99.99,,2013-04-20 05:43:00,
2013-04-20 01:52:00,54.0,47.0,29.67,SW,223,16.0,-999.0,78,-99.99,,,-99.99,,2013-04-20 05:52:00,
2013-04-20 02:02:00,53.0,46.0,29.66,West,265,14.0,-999.0,78,-99.99,,,-99.99,,2013-04-20 06:02:00,
2013-04-20 02:12:00,53.0,46.0,29.66,West,265,14.0,-999.0,78,-99.99,,,-99.99,,2013-04-20 06:12:00,
2013-04-20 02:21:00,53.0,46.0,29.64,SSW,196,13.0,-999.0,78,-99.99,,,-99.99,,2013-04-20 06:21:00,
2013-04-20 02:32:00,53.0,46.0,29.64,WSW,240,15.0,-999.0,78,-99.99,,,-99.99,,2013-04-20 06:32:00,
2013-04-20 02:42:00,53.0,46.0,29.64,WSW,240,15.0,-999.0,78,-99.99,,,-99.99,,2013-04-20 06:42:00,
2013-04-20 02:52:00,53.0,46.0,29.63,SW,236,15.0,-999.0,77,-99.99,,,-99.99,,2013-04-20 06:52:00,
2013-04-20 03:02:00,53.0,46.0,29.62,WSW,248,13.0,-999.0,77,-99.99,,,-99.99,,2013-04-20 07:02:00,
2013-04-20 03:11:00,53.0,46.0,29.62,WSW,248,13.0,-999.0,77,-99.99,,,-99.99,,2013-04-20 07:11:00,
2013-04-20 03:22:00,52.0,45.0,29.61,SW,229,12.0,-999.0,78,-99.99,,,-99.99,,2013-04-20 07:22:00,
2013-04-20 03:32:00,52.0,45.0,29.62,SW,228,15.0,-999.0,77,-99.99,,,-99.99,,2013-04-20 07:32:00,
2013-04-20 03:42:00,52.0,45.0,29.63,WSW,239,15.0,-999.0,77,-99.99,,,-99.99,,2013-04-20 07:42:00,
2013-04-20 03:52:00,52.0,45.0,29.63,WSW,239,15.0,-999.0,77,-99.99,,,-99.99,,2013-04-20 07:52:00,
2013-04-20 04:02:00,51.0,44.0,29.64,WSW,251,16.0,-999.0,78,-99.99,,,-99.99,,2013-04-20 08:02:00,
2013-04-20 04:11:00,51.0,44.0,29.64,WSW,251,16.0,-999.0,78,-99.99,,,-99.99,,2013-04-20 08:11:00,
2013-04-20 04:21:00,50.0,43.0,29.62,SW,229,12.0,-999.0,78,-99.99,,,-99.99,,2013-04-20 08:21:00,
2013-04-20 04:32:00,49.0,42.0,29.64,SW,224,10.0,-999.0,78,-99.99,,,-99.99,,2013-04-20 08:32:00,
2013-04-20 04:42:00,49.0,42.0,29.64,SW,224,10.0,-999.0,78,-99.99,,,-99.99,,2013-04-20 08:42:00,
2013-04-20 04:52:00,49.0,42.0,29.64,WSW,240,11.0,-999.0,78,-99.99,,,-99.99,,2013-04-20 08:52:00,
2013-04-20 05:02:00,49.0,42.0,29.64,WNW,284,11.0,-999.0,78,-99.99,,,-99.99,,2013-04-20 09:02:00,
2013-04-20 05:12:00,49.0,42.0,29.64,WNW,284,11.0,-999.0,78,-99.99,,,-99.99,,2013-04-20 09:12:00,
2013-04-20 05:21:00,50.0,43.0,29.63,West,262,5.0,-999.0,78,-99.99,,,-99.99,,2013-04-20 09:21:00,
2013-04-20 05:33:00,50.0,43.0,29.63,West,264,3.0,-999.0,78,-99.99,,,-99.99,,2013-04-20 09:33:00,
2013-04-20 05:43:00,50.0,43.0,29.63,West,264,3.0,-999.0,78,-99.99,,,-99.99,,2013-04-20 09:43:00,
2013-04-20 05:53:00,50.0,43.0,29.64,WSW,252,2.0,-999.0,78,-99.99,,,-99.99,,2013-04-20 09:53:00,
2013-04-20 06:03:00,50.0,43.0,29.66,WNW,300,5.0,-999.0,78,-99.99,,,-99.99,,2013-04-20 10:03:00,
2013-04-20 06:13:00,50.0,43.0,29.66,WNW,300,5.0,-999.0,78,-99.99,,,-99.99,,2013-04-20 10:13:00,
2013-04-20 06:23:00,51.0,44.0,29.66,WNW,290,10.0,-999.0,77,-99.99,,,-99.99,,2013-04-20 10:23:00,
2013-04-20 06:33:00,50.0,43.0,29.69,WNW,300,11.0,-999.0,77,-99.99,,,-99.99,,2013-04-20 10:33:00,
2013-04-20 06:42:00,50.0,43.0,29.69,WNW,300,11.0,-999.0,77,-99.99,,,-99.99,,2013-04-20 10:42:00,
2013-04-20 06:52:00,49.0,42.0,29.69,WNW,297,12.0,-999.0,77,-99.99,,,-99.99,,2013-04-20 10:52:00,
2013-04-20 07:02:00,49.0,42.0,29.71,WNW,291,13.0,-999.0,78,-99.99,,,-99.99,,2013-04-20 11:02:00,
2013-04-20 07:12:00,49.0,42.0,29.71,WNW,291,13.0,-999.0,78,-99.99,,,-99.99,,2013-04-20 11:12:00,
2013-04-20 07:23:00,49.0,42.0,29.72,NW,309,14.0,-999.0,77,-99.99,,,-99.99,,2013-04-20 11:23:00,
2013-04-20 07:32:00,47.0,41.0,29.73,NW,308,12.0,-999.0,78,-99.99,,,-99.99,,2013-04-20 11:32:00,
2013-04-20 07:42:00,47.0,41.0,29.73,NW,308,12.0,-999.0,78,-99.99,,,-99.99,,2013-04-20 11:42:00,
2013-04-20 07:52:00,47.0,41.0,29.74,NNW,340,8.0,-999.0,78,-99.99,,,-99.99,,2013-04-20 11:52:00,
2013-04-20 08:02:00,47.0,41.0,29.75,NNW,338,8.0,-999.0,78,-99.99,,,-99.99,,2013-04-20 12:02:00,
2013-04-20 08:11:00,47.0,41.0,29.75,NNW,338,8.0,-999.0,78,-99.99,,,-99.99,,2013-04-20 12:11:00,
2013-04-20 08:22:00,47.0,41.0,29.77,NW,316,8.0,-999.0,78,-99.99,,,-99.99,,2013-04-20 12:22:00,
2013-04-20 08:32:00,46.0,40.0,29.78,WNW,301,7.0,-999.0,78,-99.99,,,-99.99,,2013-04-20 12:32:00,
2013-04-20 08:42:00,46.0,40.0,29.78,WNW,301,7.0,-999.0,78,-99.99,,,-99.99,,2013-04-20 12:42:00,
2013-04-20 08:52:00,44.0,38.0,29.78,NNW,329,10.0,-999.0,78,-99.99,,,-99.99,,2013-04-20 12:52:00,
2013-04-20 09:02:00,44.0,38.0,29.78,NW,304,8.0,-999.0,78,-99.99,,,-99.99,,2013-04-20 13:02:00,
2013-04-20 09:11:00,44.0,38.0,29.78,NW,304,8.0,-999.0,78,-99.99,,,-99.99,,2013-04-20 13:11:00,
2013-04-20 09:21:00,44.0,38.0,29.79,NNW,336,7.0,-999.0,78,-99.99,,,-99.99,,2013-04-20 13:21:00,
2013-04-20 09:32:00,44.0,38.0,29.80,NW,316,5.0,-999.0,78,-99.99,,,-99.99,,2013-04-20 13:32:00,
2013-04-20 09:42:00,44.0,38.0,29.80,NW,316,5.0,-999.0,78,-99.99,,,-99.99,,2013-04-20 13:42:00,
2013-04-20 09:52:00,45.0,39.0,29.80,NNW,331,5.0,-999.0,78,-99.99,,,-99.99,,2013-04-20 13:52:00,
2013-04-20 10:02:00,45.0,39.0,29.81,NNW,344,6.0,-999.0,78,-99.99,,,-99.99,,2013-04-20 14:02:00,
2013-04-20 10:11:00,45.0,39.0,29.81,NNW,344,6.0,-999.0,78,-99.99,,,-99.99,,2013-04-20 14:11:00,
2013-04-20 10:21:00,45.0,39.0,29.83,WNW,292,6.0,-999.0,78,-99.99,,,-99.99,,2013-04-20 14:21:00,
2013-04-20 10:32:00,46.0,39.0,29.85,WNW,299,4.0,-999.0,77,-99.99,,,-99.99,,2013-04-20 14:32:00,
2013-04-20 10:42:00,46.0,39.0,29.85,WNW,299,4.0,-999.0,77,-99.99,,,-99.99,,2013-04-20 14:42:00,
2013-04-20 10:51:00,47.0,40.0,29.86,West,281,5.0,-999.0,77,-99.99,,,-99.99,,2013-04-20 14:51:00,
2013-04-20 11:02:00,48.0,41.0,29.86,West,259,5.0,-999.0,76,-99.99,,,-99.99,,2013-04-20 15:02:00,
2013-04-20 11:12:00,48.0,41.0,29.86,West,259,5.0,-999.0,76,-99.99,,,-99.99,,2013-04-20 15:12:00,
2013-04-20 11:21:00,49.0,42.0,29.87,WNW,297,7.0,-999.0,76,-99.99,,,-99.99,,2013-04-20 15:21:00,
2013-04-20 11:33:00,50.0,43.0,29.86,NW,309,10.0,-999.0,76,-99.99,,,-99.99,,2013-04-20 15:33:00,
2013-04-20 11:43:00,50.0,43.0,29.86,NW,309,10.0,-999.0,76,-99.99,,,-99.99,,2013-04-20 15:43:00,
2013-04-20 11:53:00,51.0,44.0,29.87,NW,305,11.0,-999.0,78,-99.99,,,-99.99,,2013-04-20 15:53:00,
2013-04-20 12:03:00,51.0,44.0,29.88,WNW,299,10.0,-999.0,77,-99.99,,,-99.99,,2013-04-20 16:03:00,
2013-04-20 12:12:00,52.0,44.0,29.87,North,349,11.0,-999.0,75,-99.99,,,-99.99,,2013-04-20 16:12:00,
2013-04-20 12:23:00,52.0,44.0,29.87,North,349,11.0,-999.0,75,-99.99,,,-99.99,,2013-04-20 16:23:00,
2013-04-20 12:33:00,52.0,44.0,29.87,West,276,13.0,-999.0,73,-99.99,,,-99.99,,2013-04-20 16:33:00,
2013-04-20 12:42:00,52.0,44.0,29.87,West,276,13.0,-999.0,73,-99.99,,,-99.99,,2013-04-20 16:42:00,
2013-04-20 12:53:00,54.0,45.0,29.87,NW,307,11.0,-999.0,72,-99.99,,,-99.99,,2013-04-20 16:53:00,
2013-04-20 13:02:00,52.0,44.0,29.86,WSW,237,9.0,-999.0,75,-99.99,,,-99.99,,2013-04-20 17:02:00,
2013-04-20 13:12:00,52.0,44.0,29.86,WSW,237,9.0,-999.0,75,-99.99,,,-99.99,,2013-04-20 17:12:00,
2013-04-20 13:23:00,50.0,43.0,29.86,WSW,240,8.0,-999.0,77,-99.99,,,-99.99,,2013-04-20 17:23:00,
2013-04-20 13:33:00,50.0,43.0,29.86,SW,230,11.0,-999.0,77,-99.99,,,-99.99,,2013-04-20 17:33:00,
2013-04-20 13:42:00,50.0,43.0,29.86,SW,230,11.0,-999.0,77,-99.99,,,-99.99,,2013-04-20 17:42:00,
2013-04-20 13:52:00,50.0,43.0,29.87,SW,236,10.0,-999.0,77,-99.99,,,-99.99,,2013-04-20 17:52:00,
2013-04-20 14:02:00,50.0,43.0,29.87,SW,233,11.0,-999.0,77,-99.99,,,-99.99,,2013-04-20 18:02:00,
2013-04-20 14:13:00,50.0,43.0,29.87,SSW,205,10.0,-999.0,77,-99.99,,,-99.99,,2013-04-20 18:13:00,
2013-04-20 14:22:00,50.0,43.0,29.87,SSW,205,10.0,-999.0,77,-99.99,,,-99.99,,2013-04-20 18:22:00,
2013-04-20 14:32:00,51.0,44.0,29.87,West,275,7.0,-999.0,77,-99.99,,,-99.99,,2013-04-20 18:32:00,
2013-04-20 14:42:00,51.0,44.0,29.87,West,275,7.0,-999.0,77,-99.99,,,-99.99,,2013-04-20 18:42:00,
2013-04-20 14:52:00,54.0,42.0,29.87,WNW,285,12.0,-999.0,63,-99.99,,,-99.99,,2013-04-20 18:52:00,
2013-04-20 15:02:00,54.0,38.0,29.87,WNW,290,18.0,-999.0,54,-99.99,,,-99.99,,2013-04-20 19:02:00,
2013-04-20 15:11:00,55.0,37.0,29.88,WNW,293,18.0,-999.0,51,-99.99,,,-99.99,,2013-04-20 19:11:00,
2013-04-20 15:21:00,55.0,37.0,29.88,WNW,293,18.0,-999.0,51,-99.99,,,-99.99,,2013-04-20 19:21:00,
2013-04-20 15:32:00,56.0,38.0,29.88,NW,307,16.0,-999.0,50,-99.99,,,-99.99,,2013-04-20 19:32:00,
2013-04-20 15:42:00,54.0,36.0,29.89,WNW,299,15.0,-999.0,51,-99.99,,,-99.99,,2013-04-20 19:42:00,
2013-04-20 15:52:00,54.0,36.0,29.89,WNW,299,15.0,-999.0,51,-99.99,,,-99.99,,2013-04-20 19:52:00,
2013-04-20 16:02:00,54.0,36.0,29.89,WNW,296,16.0,-999.0,50,-99.99,,,-99.99,,2013-04-20 20:02:00,
2013-04-20 16:12:00,53.0,35.0,29.90,WNW,298,16.0,-999.0,50,-99.99,,,-99.99,,2013-04-20 20:12:00,
2013-04-20 16:22:00,53.0,35.0,29.90,WNW,298,16.0,-999.0,50,-99.99,,,-99.99,,2013-04-20 20:22:00,
2013-04-20 16:32:00,53.0,36.0,29.90,WNW,295,12.0,-999.0,52,-99.99,,,-99.99,,2013-04-20 20:32:00,
2013-04-20 16:42:00,53.0,36.0,29.90,WNW,295,12.0,-999.0,52,-99.99,,,-99.99,,2013-04-20 20:42:00,
2013-04-20 16:52:00,53.0,35.0,29.91,West,276,11.0,-999.0,50,-99.99,,,-99.99,,2013-04-20 20:52:00,
2013-04-20 17:01:00,53.0,36.0,29.91,WNW,288,11.0,-999.0,52,-99.99,,,-99.99,,2013-04-20 21:01:00,
2013-04-20 17:12:00,53.0,36.0,29.91,WNW,288,11.0,-999.0,52,-99.99,,,-99.99,,2013-04-20 21:12:00,
2013-04-20 17:22:00,53.0,34.0,29.92,West,278,12.0,-999.0,49,-99.99,,,-99.99,,2013-04-20 21:22:00,
2013-04-20 17:33:00,54.0,36.0,29.93,WNW,283,11.0,-999.0,50,-99.99,,,-99.99,,2013-04-20 21:33:00,
2013-04-20 17:43:00,54.0,36.0,29.93,WNW,283,11.0,-999.0,50,-99.99,,,-99.99,,2013-04-20 21:43:00,
2013-04-20 17:53:00,54.0,35.0,29.93,West,260,10.0,-999.0,49,-99.99,,,-99.99,,2013-04-20 21:53:00,
2013-04-20 18:03:00,54.0,36.0,29.95,West,271,9.0,-999.0,50,-99.99,,,-99.99,,2013-04-20 22:03:00,
2013-04-20 18:12:00,54.0,36.0,29.95,West,271,9.0,-999.0,50,-99.99,,,-99.99,,2013-04-20 22:12:00,
2013-04-20 18:23:00,54.0,40.0,29.95,WSW,252,10.0,-999.0,59,-99.99,,,-99.99,,2013-04-20 22:23:00,
2013-04-20 18:32:00,50.0,40.0,29.96,WSW,241,11.0,-999.0,69,-99.99,,,-99.99,,2013-04-20 22:32:00,
2013-04-20 18:42:00,50.0,40.0,29.96,WSW,241,11.0,-999.0,69,-99.99,,,-99.99,,2013-04-20 22:42:00,
2013-04-20 18:53:00,49.0,40.0,29.96,WSW,240,10.0,-999.0,70,-99.99,,,-99.99,,2013-04-20 22:53:00,
2013-04-20 19:02:00,49.0,40.0,29.97,WSW,240,10.0,-999.0,71,-99.99,,,-99.99,,2013-04-20 23:02:00,
2013-04-20 19:12:00,49.0,40.0,29.97,WSW,240,10.0,-999.0,71,-99.99,,,-99.99,,2013-04-20 23:12:00,
2013-04-20 19:22:00,48.0,39.0,29.97,WSW,240,9.0,-999.0,72,-99.99,,,-99.99,,2013-04-20 23:22:00,
2013-04-20 19:32:00,48.0,39.0,29.98,WSW,248,10.0,-999.0,72,-99.99,,,-99.99,,2013-04-20 23:32:00,
2013-04-20 19:42:00,48.0,39.0,29.98,WSW,248,10.0,-999.0,72,-99.99,,,-99.99,,2013-04-20 23:42:00,
2013-04-20 19:53:00,48.0,40.0,29.98,WSW,254,9.0,-999.0,73,-99.99,,,-99.99,,2013-04-20 23:53:00,
2013-04-20 20:01:00,47.0,39.0,29.99,WSW,249,7.0,-999.0,73,-99.99,,,-99.99,,2013-04-21 00:01:00,
2013-04-20 20:12:00,47.0,39.0,29.99,WSW,249,7.0,-999.0,73,-99.99,,,-99.99,,2013-04-21 00:12:00,
2013-04-20 20:22:00,47.0,39.0,30.00,West,259,6.0,-999.0,74,-99.99,,,-99.99,,2013-04-21 00:22:00,
2013-04-20 20:32:00,46.0,39.0,30.01,WSW,256,5.0,-999.0,75,-99.99,,,-99.99,,2013-04-21 00:32:00,
2013-04-20 20:42:00,46.0,39.0,30.01,WSW,256,5.0,-999.0,75,-99.99,,,-99.99,,2013-04-21 00:42:00,
2013-04-20 20:52:00,46.0,39.0,30.02,West,269,3.0,-999.0,76,-99.99,,,-99.99,,2013-04-21 00:52:00,
2013-04-20 21:01:00,45.0,38.0,30.03,West,269,2.0,-999.0,77,-99.99,,,-99.99,,2013-04-21 01:01:00,
2013-04-20 21:12:00,45.0,38.0,30.03,West,269,2.0,-999.0,77,-99.99,,,-99.99,,2013-04-21 01:12:00,
2013-04-20 21:21:00,45.0,38.0,30.04,WNW,295,3.0,-999.0,77,-99.99,,,-99.99,,2013-04-21 01:21:00,
2013-04-20 21:32:00,44.0,37.0,30.06,WNW,291,4.0,-999.0,77,-99.99,,,-99.99,,2013-04-21 01:32:00,
2013-04-20 21:42:00,44.0,37.0,30.06,WNW,291,4.0,-999.0,77,-99.99,,,-99.99,,2013-04-21 01:42:00,
2013-04-20 21:52:00,44.0,37.0,30.06,WNW,293,4.0,-999.0,77,-99.99,,,-99.99,,2013-04-21 01:52:00,
2013-04-20 22:02:00,44.0,37.0,30.07,WNW,301,4.0,-999.0,77,-99.99,,,-99.99,,2013-04-21 02:02:00,
2013-04-20 22:11:00,44.0,37.0,30.07,WNW,301,4.0,-999.0,77,-99.99,,,-99.99,,2013-04-21 02:11:00,
2013-04-20 22:22:00,45.0,38.0,30.08,NW,312,7.0,-999.0,75,-99.99,,,-99.99,,2013-04-21 02:22:00,
2013-04-20 22:32:00,48.0,36.0,30.09,NNW,334,6.0,-999.0,64,-99.99,,,-99.99,,2013-04-21 02:32:00,
2013-04-20 22:42:00,48.0,36.0,30.09,NNW,334,6.0,-999.0,64,-99.99,,,-99.99,,2013-04-21 02:42:00,
2013-04-20 22:52:00,49.0,35.0,30.09,North,354,8.0,-999.0,59,-99.99,,,-99.99,,2013-04-21 02:52:00,
2013-04-20 23:01:00,50.0,35.0,30.10,NNW,332,9.0,-999.0,56,-99.99,,,-99.99,,2013-04-21 03:01:00,
2013-04-20 23:11:00,50.0,35.0,30.10,NNW,332,9.0,-999.0,56,-99.99,,,-99.99,,2013-04-21 03:11:00,
2013-04-20 23:22:00,49.0,33.0,30.11,NNW,335,8.0,-999.0,53,-99.99,,,-99.99,,2013-04-21 03:22:00,
2013-04-20 23:33:00,49.0,34.0,30.11,NNW,342,7.0,-999.0,55,-99.99,,,-99.99,,2013-04-21 03:33:00,
2013-04-20 23:42:00,49.0,34.0,30.11,NNW,342,7.0,-999.0,55,-99.99,,,-99.99,,2013-04-21 03:42:00,
2013-04-20 23:53:00,49.0,34.0,30.13,North,0,9.0,-999.0,56,-99.99,,,-99.99,,2013-04-21 03:53:00,